Regional Weather Roundup
Issued by NWS Kansas City/Pleasant Hill, MO

Home | Current Version | Previous Version | Graphics & Text | Print | Product List | Glossary Off
Versions: 1 2 3 4 5 6 7 8 9 10 11 12 13 14 15 16 17 18 19 20 21 22 23 24 25 26 27 28 29 30 31 32 33 34 35 36 37 38 39 40 41 42 43 44 45 46 47 48 49 50

000
ASUS43 KEAX 301804
RWREAX

WEATHER ROUNDUP FOR EASTERN KANSAS AND NORTHWEST MISSOURI
NATIONAL WEATHER SERVICE KANSAS CITY/PLEASANT HILL MO
1200 PM CST FRI JAN 30 2015

KSZ040-057-103>105-MOZ028-029-037-043-301900-
...KANSAS CITY METROPOLITAN AREA...

CITY           SKY/WX    TMP DP  RH WIND       PRES   REMARKS
K.C. INTL      CLOUDY    32  21  64 VRB3      30.53F
6HR MIN TEMP:  20; 6HR MAX TEMP:  32;

K.C. DOWNTOWN  MOSUNNY   35  20  54 CALM      30.55F
6HR MIN TEMP:  22; 6HR MAX TEMP:  35;

LEES SUMMIT    MOSUNNY   32  21  64 CALM      30.54F
6HR MIN TEMP:  22; 6HR MAX TEMP:  32;

OLATHE - IXD   MOSUNNY   34  22  61 VRB5      30.54F WCI  30
6HR MIN TEMP:  17; 6HR MAX TEMP:  34; 6HR PCP: TRACE;

OLATHE - OJC   MOSUNNY   33  18  53 VRB3      30.52F
6HR MIN TEMP:  21; 6HR MAX TEMP:  34;

LAWRENCE       PTSUNNY   33  21  61 CALM      30.55F

$$

MOZ001>008-011>017-020>025-030>033-038>040-044>046-053-054-301900-
...NORTHERN AND CENTRAL MISSOURI...

CITY           SKY/WX    TMP DP  RH WIND       PRES   REMARKS
ST. JOSEPH     MOSUNNY   31  20  63 CALM      30.56F
6HR MIN TEMP:  12; 6HR MAX TEMP:  31;

MOSBY          PTCLDY    32  21  64 CALM      30.55F
WARRENSBURG    MOSUNNY   32  21  64 CALM      30.55F
WHITEMAN AFB   MOSUNNY   33  21  61 SW6       30.54F WCI  27
6HR MIN TEMP:  19; 6HR MAX TEMP:  33;

CLINTON        SUNNY     36  23  60 N5        30.56F WCI  32
SEDALIA        SUNNY     34  22  61 CALM      30.55F
6HR MIN TEMP:  23; 6HR MAX TEMP:  35;

WARSAW         NOT AVBL
MARSHALL       SUNNY     34  23  64 SE3       30.57S
CHILLICOTHE      N/A     32  20  61 S5        30.56F WCI  27
6HR MIN TEMP:  21; 6HR MAX TEMP:  32;

MOBERLY        SUNNY     34  18  51 CALM      30.55F
KIRKSVILLE     SUNNY     30  18  60 SE3       30.54F
6HR MIN TEMP:  17; 6HR MAX TEMP:  30;


$$

MOZ041-047>049-056>058-063>065-088>090-097-301900-
...EASTERN AND SOUTHERN MISSOURI...

CITY           SKY/WX    TMP DP  RH WIND       PRES   REMARKS
ST. LOUIS INTL MOSUNNY   36  17  46 CALM      30.54F
6HR MIN TEMP:  28; 6HR MAX TEMP:  37;

SPIRIT OF STL  SUNNY     34  17  50 VRB3      30.53F
COLUMBIA       SUNNY     34  20  56 E7        30.52F WCI  28
JEFFERSON CITY SUNNY     33  20  58 S7        30.54F WCI  27
MEXICO         SUNNY     34  25  69 CALM      30.54F
HANNIBAL       SUNNY     34  14  44 W3        30.53F
ROLLA          SUNNY     34  19  54 NE3       30.49F
LEBANON        SUNNY     37  19  48 CALM      30.50F
OSAGE BEACH    SUNNY     36  19  51 E3        30.53F
SPRINGFIELD    SUNNY     39  16  39 E5        30.50F
BRANSON        PTSUNNY   45  23  42 E5        30.51F
NEVADA         SUNNY     37  25  60 CALM      30.55F
JOPLIN         SUNNY     39  24  55 CALM      30.54F

$$

IAZ060-094-KSZ022-034>040-054-083-096-NEZ052-066-093-301900-
...KANSAS...SOUTHEAST NEBRASKA AND IOWA...

CITY           SKY/WX    TMP DP  RH WIND       PRES   REMARKS
TOPEKA         PTSUNNY   34  23  64 VRB5      30.54F WCI  30
6HR MIN TEMP:  16; 6HR MAX TEMP:  34;

MANHATTAN      CLOUDY    36  28  73 CALM      30.52F
EMPORIA        MOSUNNY   36  25  64 CALM      30.52F
CHANUTE        SUNNY     36  25  64 CALM      30.54F
WICHITA        CLOUDY   N/A N/A N/A SE8       30.50F
OMAHA          PTSUNNY   29  19  66 S8        30.49F WCI  21
LINCOLN        MOSUNNY   34  26  72 S10       30.49F WCI  26
FALLS CITY     MOSUNNY   31  22  69 S8        30.52F WCI  23
LAMONI         SUNNY     28  16  60 SW3       30.52F
DES MOINES     PTSUNNY   28  13  53 SW6       30.53F WCI  22

$$



USA.gov is the U.S. government's official web portal to all federal, state and local government web resources and services.